Date String (YYYY-MM-DD hh:mm:ss) UTC,Instrument flags,Ambient pressure (hPa),Sample flow (lpm),Bypass flow (lpm),Sample temperature (°C),Ambient temperature (°C),ASC tube jacket temperature (°C),LED temperature (°C),Box temperature (°C),Sample RH (%),Span deviation,Mass concentration (μg/m³),Mass concentration (μg/m³),Mass concentration (μg/m³)
DateTimeUTC,F1_M11,P_M11,Q1_M11,Q2_M11,T1_M11,T2_M11,T3_M11,T4_M11,T5_M11,U1_M11,ZSPAN_M11,X0_M11,X2_M11,X1_M11
2021-08-22 17:00:00,,0825.9,5.00,0.00,30.0,29.1,00.0,39.0,31.8,32.5,0001.1,0014.40,0008.44,0007.65
2021-08-22 17:01:00,,0825.9,4.99,0.00,30.0,28.5,00.0,39.0,31.7,32.4,0001.3,0013.93,0008.44,0007.66
2021-08-22 17:02:00,,0826.0,5.01,0.00,29.9,26.8,00.0,39.0,31.3,32.4,0001.3,0013.95,0008.41,0007.63
2021-08-22 17:03:00,,0825.7,5.00,0.00,29.7,26.0,00.0,38.9,31.0,32.7,0001.3,0013.97,0008.41,0007.62
2021-08-22 17:04:00,,0825.6,5.01,0.00,29.6,26.3,00.0,38.9,31.1,33.0,0001.3,0013.96,0008.40,0007.60
2021-08-22 17:05:00,,0825.7,5.00,0.00,29.6,26.8,00.0,38.8,31.1,33.1,0001.1,0014.30,0008.40,0007.59
2021-08-22 17:06:00,,0825.9,5.01,0.00,29.6,27.2,00.0,38.8,31.2,32.7,0001.3,0015.39,0008.37,0007.58
2021-08-22 17:07:00,,0825.9,4.99,0.00,29.6,27.5,00.0,38.8,31.2,33.0,0001.2,0014.91,0008.36,0007.59
2021-08-22 17:08:00,,0825.8,5.00,0.00,29.6,27.8,00.0,38.8,31.3,33.5,0000.9,0015.03,0008.33,0007.61
2021-08-22 17:09:00,,0825.8,4.99,0.00,29.6,28.0,00.0,38.8,31.4,32.3,0001.0,0015.65,0008.35,0007.63
2021-08-22 17:10:00,,0825.9,5.02,0.00,29.6,28.2,00.0,38.8,31.4,32.5,0001.4,0016.22,0008.37,0007.66
2021-08-22 17:11:00,,0825.9,4.99,0.00,29.6,28.3,00.0,38.8,31.5,32.6,0001.5,0016.71,0008.44,0007.71
2021-08-22 17:12:00,,0825.9,5.02,0.00,29.7,28.4,00.0,38.8,31.5,33.1,0001.2,0016.86,0008.51,0007.76
2021-08-22 17:13:00,,0825.9,4.99,0.00,29.7,28.5,00.0,38.8,31.5,32.8,0001.2,0017.31,0008.58,0007.83
2021-08-22 17:14:00,,0825.8,5.01,0.00,29.7,28.6,00.0,38.8,31.6,32.9,0001.2,0017.31,0008.64,0007.89
2021-08-22 17:15:00,,0826.0,5.01,0.00,29.7,28.7,00.0,38.8,31.6,33.9,0001.3,0017.37,0008.67,0007.94
2021-08-22 17:16:00,,0826.1,5.00,0.00,29.8,28.8,00.0,38.8,31.7,32.5,0001.5,0017.29,0008.70,0007.99
2021-08-22 17:17:00,,0825.9,5.00,0.00,29.8,28.9,00.0,38.8,31.7,31.4,0001.2,0016.34,0008.73,0008.04
2021-08-22 17:18:00,,0825.8,5.00,0.00,29.9,28.9,00.0,38.9,31.7,32.1,0001.0,0016.33,0008.77,0008.06
2021-08-22 17:19:00,,0825.9,5.00,0.00,29.9,29.0,00.0,38.9,31.7,31.0,0001.3,0016.10,0008.80,0008.09
2021-08-22 17:20:00,,0825.9,5.01,0.00,29.9,29.0,00.0,38.9,31.8,30.9,0001.4,0015.39,0008.80,0008.10
2021-08-22 17:21:00,,0825.9,5.00,0.00,29.9,29.1,00.0,38.9,31.8,31.4,0000.9,0014.69,0008.80,0008.11
2021-08-22 17:22:00,,0825.8,5.01,0.00,29.9,28.2,00.0,38.9,31.5,30.9,0000.9,0014.26,0008.78,0008.10
2021-08-22 17:23:00,,0825.7,4.99,0.00,29.8,26.5,00.0,38.9,31.1,31.6,0001.1,0013.65,0008.72,0008.10
2021-08-22 17:24:00,,0825.9,5.00,0.00,29.7,25.9,00.0,38.9,30.9,32.0,0001.3,0013.23,0008.69,0008.09
2021-08-22 17:25:00,,0826.0,5.00,0.00,29.6,26.3,00.0,38.8,30.9,32.9,0001.5,0013.47,0008.68,0008.07
2021-08-22 17:26:00,,0825.7,5.00,0.00,29.5,26.7,00.0,38.8,31.0,33.8,0001.6,0014.66,0008.71,0008.07
2021-08-22 17:27:00,,0825.6,5.01,0.00,29.5,27.1,00.0,38.8,31.1,34.7,0001.6,0014.80,0008.72,0008.07
2021-08-22 17:28:00,,0825.6,4.99,0.00,29.5,27.5,00.0,38.7,31.2,33.6,0002.0,0014.55,0008.74,0008.08
2021-08-22 17:29:00,,0825.5,5.01,0.00,29.5,27.7,00.0,38.7,31.3,33.3,0002.2,0014.56,0008.74,0008.08
2021-08-22 17:30:00,,0825.6,4.99,0.00,29.5,27.9,00.0,38.7,31.3,33.6,0002.0,0014.46,0008.73,0008.06
2021-08-22 17:31:00,,0825.6,5.00,0.00,29.6,28.1,00.0,38.7,31.4,33.5,0002.0,0014.95,0008.75,0008.06
2021-08-22 17:32:00,,0825.6,5.01,0.00,29.6,28.3,00.0,38.7,31.4,33.7,0002.0,0015.16,0008.78,0008.07
2021-08-22 17:33:00,,0825.6,5.00,0.00,29.6,28.4,00.0,38.7,31.5,32.4,0001.8,0015.16,0008.78,0008.06
2021-08-22 17:34:00,,0825.5,4.99,0.00,29.7,28.5,00.0,38.7,31.5,32.6,0001.8,0015.10,0008.78,0008.06
2021-08-22 17:35:00,,0825.6,5.01,0.00,29.7,28.6,00.0,38.7,31.5,32.8,0001.8,0015.06,0008.79,0008.06
2021-08-22 17:36:00,,0825.7,5.00,0.00,29.7,28.7,00.0,38.8,31.6,32.6,0001.4,0014.59,0008.78,0008.07
2021-08-22 17:37:00,,0825.6,4.99,0.00,29.7,28.8,00.0,38.8,31.6,32.1,0001.4,0013.44,0008.76,0008.06
2021-08-22 17:38:00,,0825.5,5.01,0.00,29.8,28.8,00.0,38.8,31.6,32.2,0001.6,0013.80,0008.74,0008.06
2021-08-22 17:39:00,,0825.6,4.99,0.00,29.8,28.9,00.0,38.8,31.7,32.3,0001.4,0013.88,0008.69,0008.06
2021-08-22 17:40:00,,0825.5,4.99,0.00,29.8,28.8,00.0,38.8,31.7,33.0,0001.2,0013.77,0008.68,0008.08
2021-08-22 17:41:00,,0825.4,5.01,0.00,29.8,27.4,00.0,38.8,31.3,33.6,0001.1,0013.77,0008.70,0008.11
2021-08-22 17:42:00,,0825.5,5.00,0.00,29.6,26.1,00.0,38.8,30.9,34.2,0001.3,0013.34,0008.69,0008.12
2021-08-22 17:43:00,,0825.6,5.00,0.00,29.5,26.0,00.0,38.8,30.8,33.5,0001.7,0013.33,0008.69,0008.11
2021-08-22 17:44:00,,0825.6,5.01,0.00,29.4,26.4,00.0,38.7,30.9,33.1,0001.6,0014.16,0008.71,0008.11
2021-08-22 17:45:00,,0825.6,4.99,0.00,29.4,26.8,00.0,38.7,31.0,34.3,0001.7,0014.23,0008.72,0008.11
2021-08-22 17:46:00,,0825.6,5.01,0.00,29.4,27.2,00.0,38.6,31.1,34.2,0001.6,0014.94,0008.71,0008.10
2021-08-22 17:47:00,,0825.5,5.01,0.00,29.5,27.6,00.0,38.6,31.2,34.9,0002.0,0015.33,0008.74,0008.08
2021-08-22 17:48:00,,0825.5,4.99,0.00,29.6,27.8,00.0,38.6,31.3,33.5,0002.0,0015.91,0008.71,0008.08
2021-08-22 17:49:00,,0825.5,5.00,0.00,29.7,28.0,00.0,38.6,31.4,33.6,0001.7,0015.39,0008.70,0008.08
2021-08-22 17:50:00,,0825.4,5.00,0.00,29.8,28.2,00.0,38.6,31.4,32.6,0001.7,0015.32,0008.74,0008.06
2021-08-22 17:51:00,,0825.5,5.01,0.00,29.8,28.4,00.0,38.7,31.4,31.7,0001.9,0015.61,0008.76,0008.03
2021-08-22 17:52:00,,0825.4,4.99,0.00,29.8,28.5,00.0,38.7,31.5,32.9,0002.1,0016.34,0008.70,0007.98
2021-08-22 17:53:00,,0825.5,5.00,0.00,29.9,28.6,00.0,38.7,31.5,32.9,0001.7,0017.44,0008.68,0007.96
2021-08-22 17:54:00,,0825.5,5.01,0.00,29.9,28.7,00.0,38.7,31.6,32.5,0001.2,0018.14,0008.72,0007.98
2021-08-22 17:55:00,,0825.5,5.00,0.00,30.0,28.8,00.0,38.8,31.6,31.6,0001.3,0017.32,0008.72,0007.98
2021-08-22 17:56:00,,0825.5,5.00,0.00,30.0,28.9,00.0,38.8,31.7,32.1,0001.3,0017.17,0008.70,0007.98
2021-08-22 17:57:00,,0825.5,5.00,0.00,30.0,29.0,00.0,38.8,31.7,33.0,0001.2,0016.56,0008.71,0007.98
2021-08-22 17:58:00,,0825.4,5.00,0.00,30.1,29.1,00.0,38.9,31.8,32.9,0000.8,0016.30,0008.69,0008.01
2021-08-22 17:59:00,,0825.4,5.01,0.00,30.1,28.7,00.0,38.9,31.7,33.6,0000.8,0016.21,0008.74,0008.03
